アトラス彗星

C/2022 E2 ( ATLAS )

English version
Home page
Updated on April 13, 2024

---------------------------------------------------------------------

・ プロフィール

発見日 2022年3月7日
発見光度 18.7等
発見者 Asteroid Terrestrial-Impact Last Alert System (ATLAS) search program

・ 写真集

・ 軌道要素

Epoch 2024 Mar. 31.0 TT = JDT 2460400.5
T 2024 Sept. 14.09544 TT                                Rudenko
q   3.6663687            (2000.0)            P               Q
z  -0.0002060      Peri.   41.71255     -0.03448608     +0.83125734
 +/-0.0000005      Node   125.37020     +0.63737012     -0.40930564
e   1.0007553      Incl.  137.12517     +0.76978571     +0.37613844
>From 2235 observations 2022 Feb. 23-2024 Mar. 17, mean residual 0".5.

・ 星図

・ 光度変化

        m1 = 2.2 + 5 logΔ + 12.5 log r

---------------------------------------------------------------------

軌道要素はM.P.E.C. 2024-F34に掲載されたものです。
星図はステラナビゲータ Ver.10 (アストロアーツ) で作成したものです。
光度グラフはComet for Windowsで作成したものです。

---------------------------------------------------------------------

Copyright(C) Seiichi Yoshida (comet@aerith.net). All rights reserved.